Cordell Hull Lake Weather Center

Moon Phase Calendar



Cordell Hull Lake Water Level
Online Cameras

 


      

Current Conditions in Gainesboro
9/25/2021 6:52:11 PM

65°F
Feels Like 65
Clouds
Humidity
90%
Pressure
30.06"
Wind
3.2 mph (NNW)
Dew Point
62°F
UV Index
0/10 (Low)
Visibility
6 mi

Hourly Forecast

Date & Time Sat, Sep 25
6:00 PM
Sat, Sep 25
7:00 PM
Sat, Sep 25
8:00 PM
Sat, Sep 25
9:00 PM
Sat, Sep 25
10:00 PM
Sat, Sep 25
11:00 PM
Sun, Sep 26
12:00 AM
Sun, Sep 26
1:00 AM
Sun, Sep 26
2:00 AM
Sun, Sep 26
3:00 AM
Sun, Sep 26
4:00 AM
Sun, Sep 26
5:00 AM
Sun, Sep 26
6:00 AM
Sun, Sep 26
7:00 AM
Sun, Sep 26
8:00 AM
Sun, Sep 26
9:00 AM
Sun, Sep 26
10:00 AM
Sun, Sep 26
11:00 AM
Sun, Sep 26
12:00 PM
Sun, Sep 26
1:00 PM
Sun, Sep 26
2:00 PM
Sun, Sep 26
3:00 PM
Sun, Sep 26
4:00 PM
Sun, Sep 26
5:00 PM
Sun, Sep 26
6:00 PM
Sun, Sep 26
7:00 PM
Sun, Sep 26
8:00 PM
Sun, Sep 26
9:00 PM
Sun, Sep 26
10:00 PM
Sun, Sep 26
11:00 PM
Mon, Sep 27
12:00 AM
Mon, Sep 27
1:00 AM
Mon, Sep 27
2:00 AM
Mon, Sep 27
3:00 AM
Mon, Sep 27
4:00 AM
Mon, Sep 27
5:00 AM
Mon, Sep 27
6:00 AM
Mon, Sep 27
7:00 AM
Mon, Sep 27
8:00 AM
Mon, Sep 27
9:00 AM
Mon, Sep 27
10:00 AM
Mon, Sep 27
11:00 AM
Mon, Sep 27
12:00 PM
Mon, Sep 27
1:00 PM
Mon, Sep 27
2:00 PM
Mon, Sep 27
3:00 PM
Mon, Sep 27
4:00 PM
Mon, Sep 27
5:00 PM
Condition
Rain

Clouds

Clouds

Clouds

Clear

Clear

Clear

Clear

Clear

Clear

Clear

Clear

Clear

Clear

Clear

Clear

Clear

Clear

Clear

Clear

Clouds

Clouds

Clear

Clear

Clear

Clear

Clear

Clear

Clear

Clear

Clear

Clear

Clear

Clear

Clear

Clear

Clear

Clear

Clear

Clear

Clear

Clear

Clear

Clear

Clear

Clear

Clear

Clear
Temperature 65°F65°F64°F62°F60°F58°F56°F55°F54°F53°F52°F52°F52°F52°F57°F62°F68°F72°F75°F76°F77°F76°F75°F73°F66°F61°F60°F58°F57°F57°F56°F55°F55°F54°F54°F54°F54°F54°F59°F66°F70°F74°F77°F79°F79°F79°F78°F76°F
Feels Like 65°F65°F64°F62°F60°F58°F55°F54°F53°F53°F52°F51°F51°F51°F57°F62°F68°F71°F74°F75°F76°F75°F74°F72°F66°F60°F59°F58°F57°F56°F55°F54°F54°F53°F53°F53°F53°F53°F59°F65°F70°F74°F77°F78°F79°F79°F78°F76°F
Cloudiness 16%16%13%11%9%6%3%3%0%2%2%1%1%1%0%0%0%0%0%1%21%15%10%8%7%6%0%0%0%1%2%2%0%0%0%0%0%0%0%0%0%0%0%0%0%0%0%0%
Visibility 6 mi6 mi6 mi6 mi6 mi6 mi6 mi6 mi6 mi6 mi6 mi6 mi6 mi6 mi6 mi6 mi6 mi6 mi6 mi6 mi6 mi6 mi6 mi6 mi6 mi6 mi6 mi6 mi6 mi6 mi6 mi6 mi6 mi6 mi6 mi6 mi6 mi6 mi6 mi6 mi6 mi6 mi6 mi6 mi6 mi6 mi6 mi6 mi
Precipitation 25%5%0%0%0%0%0%0%0%0%0%0%0%0%0%0%0%0%0%0%0%0%0%0%0%0%0%0%0%0%0%0%0%0%0%0%0%0%0%0%0%0%0%0%0%0%0%0%
Humidity 88%90%91%92%93%94%95%94%93%92%92%92%93%94%89%79%63%48%42%38%36%37%40%57%69%73%75%77%79%79%78%78%80%81%83%84%86%86%78%68%61%56%52%50%49%51%55%64%
Dew Point 61°F62°F61°F60°F58°F56°F54°F53°F52°F50°F50°F49°F49°F50°F53°F55°F54°F51°F50°F48°F48°F48°F49°F56°F55°F52°F51°F51°F51°F50°F49°F48°F48°F48°F49°F49°F49°F50°F52°F54°F56°F57°F58°F58°F58°F59°F60°F63°F
Pressure 30.06"30.06"30.06"30.06"30.09"30.12"30.12"30.12"30.12"30.12"30.12"30.12"30.12"30.15"30.15"30.15"30.15"30.15"30.15"30.12"30.09"30.09"30.06"30.06"30.09"30.09"30.09"30.09"30.09"30.12"30.09"30.12"30.12"30.09"30.09"30.09"30.09"30.12"30.12"30.12"30.12"30.09"30.09"30.06"30.03"30.03"30"30"
Wind Speed 4.4 mph3.2 mph2 mph1.7 mph2.4 mph3 mph2.9 mph2.4 mph1.6 mph1.9 mph2 mph1.8 mph1.9 mph2.6 mph2 mph2.1 mph1.9 mph1.5 mph1.2 mph1.7 mph2.2 mph2.5 mph3 mph2.6 mph1.8 mph1.1 mph2.8 mph3.2 mph3.6 mph4.2 mph4.5 mph4.5 mph4.6 mph4.5 mph5 mph5 mph5.1 mph5 mph4.7 mph6 mph6.7 mph7.5 mph7.9 mph8.2 mph8.2 mph8.5 mph8 mph6.4 mph
Wind
Direction
322°
NW
344°
NNW
31°
NNE
64°
ENE
46°
NE
39°
NE
38°
NE
56°
NE
57°
ENE
65°
ENE
91°
E
127°
SE
149°
SSE
130°
SE
138°
SE
149°
SSE
172°
S
199°
SSW
232°
SW
277°
W
274°
W
277°
W
279°
W
277°
W
275°
W
180°
S
140°
SE
147°
SSE
153°
SSE
155°
SSE
161°
SSE
166°
SSE
167°
SSE
164°
SSE
163°
SSE
167°
SSE
174°
S
176°
S
173°
S
189°
S
202°
SSW
214°
SW
220°
SW
225°
SW
227°
SW
226°
SW
224°
SW
221°
SW

Daily Forecast

Date High Low Precip. Humidity
Today
Sep 25

Rain
72 °F
52 °F
27%
74%
Sunday
Sep 26

Clear
77 °F
52 °F
0%
42%
Monday
Sep 27

Clear
79 °F
54 °F
0%
50%
Tuesday
Sep 28

Clear
79 °F
58 °F
0%
51%
Wednesday
Sep 29

Clear
83 °F
61 °F
0%
52%
Thursday
Sep 30

Clouds
82 °F
63 °F
0%
50%
Friday
Oct 1

Clouds
80 °F
57 °F
0%
42%
Saturday
Oct 2

Clouds
78 °F
57 °F
0%
44%
Sunday
Oct 3

Clouds
78 °F
54 °F
0%
37%
Monday
Oct 4

Clouds
67 °F
60 °F
8%
72%
Tuesday
Oct 5

Rain
79 °F
60 °F
45%
50%
Wednesday
Oct 6

Rain
65 °F
59 °F
100%
97%
Thursday
Oct 7

Rain
67 °F
58 °F
29%
89%
Friday
Oct 8

Rain
74 °F
56 °F
34%
59%
Saturday
Oct 9

Clear
75 °F
55 °F
0%
51%
Sunday
Oct 10

Clear
74 °F
55 °F
0%
54%

Temperature 8-14 Day Outlook



Precipitation 8-14 Day Outlook




Quick Links
Cordell Hull Lake News
Cordell Hull Lake Photos
Cordell Hull Lake Videos




About Us
Contact Us
Site Map
Search Site
Advertise With Us
   
CordellHull.USLakes.info
THE CORDELL HULL LAKE WEBSITE

Copyright 2021, Lakes Online
Privacy    |    Legal